| time (UTC) | temp C | wind direction | speed KPH | gust KPH | rain 1hr cm | rain 24hr cm | rain mn cm | humidity % | barometer mb |
| 20260506093053 | 17 | 101 | 0.0 | 8.0 | 0.00 | 0.00 | 0.00 | 61 | 1007.2 |
| 20260506091551 | 17 | 142 | 1.6 | 9.7 | 0.00 | 0.00 | 0.00 | 61 | 1007.3 |
| 20260506090048 | 17 | 207 | 0.0 | 12.9 | 0.00 | 0.00 | 0.00 | 60 | 1007.3 |
| 20260506084619 | 17 | 242 | 1.6 | 11.3 | 0.00 | 0.00 | 0.00 | 59 | 1007.5 |
| 20260506083054 | 17 | 110 | 0.0 | 4.8 | 0.00 | 0.00 | 0.00 | 59 | 1007.6 |
| 20260506081557 | 17 | 219 | 1.6 | 3.2 | 0.00 | 0.00 | 0.00 | 60 | 1007.7 |
| 20260506073055 | 18 | 273 | 3.2 | 4.8 | 0.00 | 0.00 | 0.00 | 54 | 1007.9 |
| 20260506071553 | 19 | 0 | 0.0 | 12.9 | 0.00 | 0.00 | 0.00 | 53 | 1007.8 |
| 20260506061552 | 20 | 269 | 1.6 | 9.7 | 0.00 | 0.00 | 0.00 | 52 | 1008.5 |
| 20260506044700 | 20 | 229 | 3.2 | 12.9 | 0.00 | 0.00 | 0.00 | 48 | 1008.6 |
| 20260506043107 | 21 | 228 | 6.4 | 14.5 | 0.00 | 0.00 | 0.00 | 47 | 1008.7 |
| 20260506041601 | 21 | 0 | 3.2 | 16.1 | 0.00 | 0.00 | 0.00 | 47 | 1008.7 |
| 20260506040054 | 21 | 4 | 1.6 | 14.5 | 0.00 | 0.00 | 0.00 | 46 | 1008.5 |
| 20260506034623 | 21 | 245 | 3.2 | 9.7 | 0.00 | 0.00 | 0.00 | 46 | 1008.6 |
| 20260506033058 | 21 | 273 | 1.6 | 14.5 | 0.00 | 0.00 | 0.00 | 45 | 1008.3 |
| 20260506031553 | 21 | 314 | 3.2 | 19.3 | 0.00 | 0.00 | 0.00 | 45 | 1008.2 |
| 20260506030051 | 21 | 240 | 4.8 | 11.3 | 0.00 | 0.00 | 0.00 | 45 | 1008.3 |
| 20260506024550 | 22 | 323 | 3.2 | 12.9 | 0.00 | 0.00 | 0.00 | 45 | 1008.3 |
| 20260506023108 | 21 | 290 | 3.2 | 9.7 | 0.00 | 0.00 | 0.00 | 46 | 1008.3 |
| 20260506021554 | 22 | 250 | 3.2 | 11.3 | 0.00 | 0.00 | 0.00 | 45 | 1008.3 |
| 20260506020052 | 22 | 121 | 4.8 | 16.1 | 0.00 | 0.00 | 0.00 | 45 | 1008.3 |
| 20260506014553 | 21 | 224 | 3.2 | 14.5 | 0.00 | 0.00 | 0.00 | 46 | 1008.3 |
| 20260506013055 | 21 | 224 | 1.6 | 11.3 | 0.00 | 0.00 | 0.00 | 47 | 1008.1 |
| 20260506011614 | 21 | 214 | 1.6 | 6.4 | 0.00 | 0.00 | 0.00 | 46 | 1007.8 |
| 20260506010101 | 22 | 0 | 0.0 | 4.8 | 0.00 | 0.00 | 0.00 | 44 | 1007.7 |
| 20260506004632 | 22 | 273 | 1.6 | 12.9 | 0.00 | 0.00 | 0.00 | 42 | 1007.5 |
| 20260506003111 | 22 | 145 | 0.0 | 8.0 | 0.00 | 0.00 | 0.00 | 45 | 1007.5 |
| 20260506001554 | 22 | 300 | 1.6 | 11.3 | 0.00 | 0.00 | 0.00 | 42 | 1007.2 |
| 20260506000059 | 22 | 314 | 4.8 | 17.7 | 0.00 | 0.00 | 0.00 | 43 | 1007.1 |
| 20260505234637 | 21 | 325 | 3.2 | 6.4 | 0.00 | 0.00 | 0.00 | 47 | 1007.0 |
| 20260505233102 | 21 | 0 | 0.0 | 4.8 | 0.00 | 0.00 | 0.00 | 45 | 1006.8 |
| 20260505231551 | 22 | 211 | 1.6 | 4.8 | 0.00 | 0.00 | 0.00 | 45 | 1006.7 |
| 20260505230053 | 22 | 293 | 4.8 | 9.7 | 0.00 | 0.00 | 0.00 | 41 | 1006.5 |
| 20260505224554 | 23 | 319 | 6.4 | 8.0 | 0.00 | 0.00 | 0.00 | 37 | 1006.2 |
| 20260505223051 | 23 | 229 | 4.8 | 14.5 | 0.00 | 0.00 | 0.00 | 35 | 1005.9 |
| 20260505221554 | 24 | 102 | 3.2 | 14.5 | 0.00 | 0.00 | 0.00 | 34 | 1006.0 |
| 20260505214601 | 25 | 297 | 8.0 | 20.9 | 0.00 | 0.00 | 0.00 | 32 | 1005.7 |
| 20260505213054 | 25 | 245 | 6.4 | 17.7 | 0.00 | 0.00 | 0.00 | 32 | 1005.4 |
| 20260505211554 | 25 | 211 | 3.2 | 27.4 | 0.00 | 0.00 | 0.00 | 32 | 1005.3 |
| 20260505210050 | 25 | 287 | 8.0 | 22.5 | 0.00 | 0.00 | 0.00 | 32 | 1005.0 |
| 20260505204549 | 26 | 193 | 8.0 | 17.7 | 0.00 | 0.00 | 0.00 | 31 | 1005.1 |
| 20260505203051 | 26 | 347 | 8.0 | 19.3 | 0.00 | 0.00 | 0.00 | 31 | 1005.0 |
| 20260505201550 | 26 | 232 | 8.0 | 30.6 | 0.00 | 0.00 | 0.00 | 31 | 1005.0 |
| 20260505200056 | 26 | 289 | 8.0 | 19.3 | 0.00 | 0.00 | 0.00 | 34 | 1005.2 |
| 20260505194554 | 25 | 205 | 8.0 | 25.7 | 0.00 | 0.00 | 0.00 | 34 | 1005.2 |
| 20260505193055 | 26 | 71 | 9.7 | 30.6 | 0.00 | 0.00 | 0.00 | 33 | 1005.3 |
| 20260505191557 | 26 | 212 | 11.3 | 29.0 | 0.00 | 0.00 | 0.00 | 32 | 1005.4 |
| 20260505190053 | 25 | 300 | 12.9 | 32.2 | 0.00 | 0.00 | 0.00 | 32 | 1005.6 |
| 20260505184549 | 26 | 271 | 14.5 | 35.4 | 0.00 | 0.00 | 0.00 | 32 | 1005.9 |
| 20260505183053 | 26 | 295 | 11.3 | 37.0 | 0.00 | 0.00 | 0.00 | 33 | 1005.9 |
| 20260505181550 | 25 | 287 | 8.0 | 45.1 | 0.00 | 0.00 | 0.00 | 35 | 1006.5 |
| 20260505174609 | 25 | 256 | 12.9 | 33.8 | 0.00 | 0.00 | 0.00 | 35 | 1006.4 |
| 20260505173053 | 25 | 283 | 6.4 | 22.5 | 0.00 | 0.00 | 0.00 | 38 | 1006.4 |
| 20260505172013 | 25 | 252 | 11.3 | 29.0 | 0.00 | 0.00 | 0.00 | 37 | 1006.5 |
| 20260505153058 | 22 | 209 | 4.8 | 20.9 | 0.00 | 0.00 | 0.00 | 46 | 1007.8 |
| 20260505151554 | 23 | 235 | 1.6 | 9.7 | 0.00 | 0.00 | 0.00 | 45 | 1007.6 |
| 20260505124552 | 17 | 116 | 0.0 | 8.0 | 0.00 | 0.00 | 0.00 | 64 | 1008.5 |
| 20260505123107 | 16 | 218 | 1.6 | 4.8 | 0.00 | 0.00 | 0.00 | 67 | 1008.6 |
| 20260505121601 | 13 | 0 | 0.0 | 0.0 | 0.00 | 0.00 | 0.00 | 68 | 1008.8 |
| 20260505120058 | 12 | 0 | 0.0 | 4.8 | 0.00 | 0.00 | 0.00 | 58 | 1008.8 |
| 20260505114614 | 10 | 283 | 0.0 | 3.2 | 0.00 | 0.00 | 0.00 | 40 | 1008.8 |
| 20260505113058 | 10 | 321 | 0.0 | 1.6 | 0.00 | 0.00 | 0.00 | 48 | 1009.0 |
| 20260505111605 | 9 | 335 | 1.6 | 4.8 | 0.00 | 0.00 | 0.00 | 41 | 1008.9 |
| 20260505101548 | 7 | 57 | 3.2 | 6.4 | 0.00 | 0.00 | 0.00 | 31 | 1008.4 |
| 20260505100051 | 7 | 0 | 0.0 | 1.6 | 0.00 | 0.00 | 0.00 | 46 | 1008.5 |
| 20260505094550 | 8 | 0 | 0.0 | 0.0 | 0.00 | 0.00 | 0.00 | 53 | 1008.5 |